Weather History for KNEL - June, 2013

Change the Weather History Date:

Wednesday, June 5, 2013

  Actual Average Record
Temperature  
Mean Temperature 68 °F -  
Max Temperature 60 °F 74 °F 79 °F (2001)
Min Temperature 48 °F 58 °F 48 °F (2012)
Cooling Degree Days 2    
Growing Degree Days 18 (Base 50)    
Moisture  
Dew Point 49 °F    
Average Humidity 52    
Maximum Humidity 83    
Minimum Humidity 25    
Precipitation  
Precipitation 0.00 in - - ()
Sea Level Pressure  
Sea Level Pressure 30.14 in    
Wind  
Wind Speed 3 mph (East)    
Max Wind Speed 10 mph    
Max Gust Speed -    
Averages and records for this station are not official NWS values.
T = Trace of Precipitation, MM = Missing Value Source: NWS Daily Summary

Daily Weather History Graph

Daily Weather History Graph

Search for Another Location

Airport or City:

Trip Planner

Search our weather history database for the weather conditions in past years. The results will help you decide how hot, cold, wet, or windy it might be!

Date:

Astronomy

Jun. 05, 2013 Rise Set
Actual Time 5:29 AM EDT 8:23 PM EDT
Civil Twilight 4:56 AM EDT 8:55 PM EDT
Nautical Twilight 4:15 AM EDT 9:36 PM EDT
Astronomical Twilight 3:28 AM EDT 10:24 PM EDT
Moon 3:31 AM EDT 5:47 PM EDT
Length of Visible Light 15h 58m
Length of Day
14h 54m
Waning Crescent, 8% of the Moon is Illuminated
Jun 5
Waning Crescent
Jun 8
New
Jun 16
First Quarter
Jun 23
Full
Jun 30
Last Quarter

Hourly Weather History & Observations

Time (EDT) Temp. Dew Point Humidity Pressure Visibility Wind Dir Wind Speed Gust Speed Precip Events Conditions
12:00 AM 57.0 °F 50.0 °F 77% 30.11 in - Calm Calm - N/A   Clear
1:00 AM 55.0 °F 46.9 °F 74% 30.10 in - Calm Calm - N/A   Clear
2:00 AM 54.0 °F 46.9 °F 77% 30.10 in - Calm Calm - N/A   Clear
3:00 AM 55.0 °F 46.0 °F 72% 30.11 in - NW 3.5 mph - N/A   Clear
4:00 AM 51.1 °F 44.1 °F 77% 30.12 in - Calm Calm - N/A   Clear
5:00 AM 50.0 °F 44.1 °F 80% 30.13 in - Calm Calm - N/A   Clear
6:00 AM 48.9 °F 44.1 °F 83% 30.15 in - Calm Calm - N/A   Clear
7:00 AM 62.1 °F 46.9 °F 58% 30.17 in - Calm Calm - N/A   Clear
8:00 AM 64.9 °F 46.0 °F 50% 30.18 in - NNE 3.5 mph - N/A   Clear
9:00 AM 73.9 °F 46.0 °F 37% 30.19 in - ENE 6.9 mph - N/A   Clear
10:00 AM 75.0 °F 46.9 °F 37% 30.19 in - Calm Calm - N/A   Clear
11:00 AM 82.0 °F 48.0 °F 30% 30.18 in - Variable 6.9 mph - N/A   Clear
12:00 PM 84.9 °F 45.0 °F 25% 30.17 in - Calm Calm - N/A   Clear
1:00 PM 86.0 °F 50.0 °F 29% 30.15 in - ESE 9.2 mph - N/A   Clear
2:00 PM 84.9 °F 52.0 °F 32% 30.13 in - ENE 9.2 mph - N/A   Clear
3:00 PM 82.9 °F 52.0 °F 34% 30.14 in - ENE 4.6 mph - N/A   Clear
4:00 PM 87.1 °F 52.0 °F 30% 30.12 in - ENE 9.2 mph - N/A   Clear
5:00 PM 82.0 °F 52.0 °F 35% 30.12 in - East 6.9 mph - N/A   Clear
6:00 PM 81.0 °F 46.9 °F 30% 30.13 in - ESE 10.4 mph - N/A   Clear
7:00 PM 77.0 °F 52.0 °F 42% 30.13 in - East 9.2 mph - N/A   Clear
8:00 PM 75.9 °F 53.1 °F 45% 30.12 in - ESE 6.9 mph - N/A   Clear
9:00 PM 66.0 °F 55.0 °F 68% 30.12 in - East 4.6 mph - N/A   Clear
10:00 PM 71.1 °F 57.0 °F 61% 30.14 in - East 4.6 mph - N/A   Clear
11:00 PM 70.0 °F 57.9 °F 65% 30.14 in - East 4.6 mph - N/A   Clear